Location: ?????
(32.7281°N, 34.9563°E)
Time: 18:06:04
(UTC+00:00)

PSLV R/B - Pass Details

Date: 29 October 2020
Orbit: 567 x 599 km, 98.2° (Epoch: 30 November)

Event Time Altitude Azimuth Distance (km) Brightness Sun altitude
Rises 16:01:02 0° 7° (N) 2,823 7.3 -15.1°
Reaches altitude 10° 16:03:14 10° 4° (N) 1,914 6.5 -15.6°
Maximum altitude 16:07:19 60° 285° (WNW) 669 4.5 -16.4°
Drops below altitude 10° 16:11:20 10° 205° (SSW) 1,882 6.9 -17.3°
Sets 16:13:29 0° 202° (SSW) 2,771 7.8 -17.7°
